| time (UTC) | temp F | wind direction | speed MPH | gust MPH | rain 1hr in | rain 24hr in | rain mn in | humidity % | barometer mb |
| 20260905174643 | 95 | 146 | 3.0 | 8.0 | 0.00 | 0.00 | 0.00 | 48 | 1014.3 |
| 20260905174139 | 95 | 123 | 3.0 | 8.0 | 0.00 | 0.00 | 0.00 | 47 | 1014.4 |
| 20260905173909 | 94 | 130 | 2.0 | 8.0 | 0.00 | 0.00 | 0.00 | 49 | 1014.5 |
| 20260905173139 | 94 | 186 | 2.0 | 6.0 | 0.00 | 0.00 | 0.00 | 51 | 1014.5 |
| 20260905172639 | 93 | 159 | 4.0 | 10.0 | 0.00 | 0.00 | 0.00 | 54 | 1014.7 |
| 20260905172137 | 92 | 135 | 3.0 | 10.0 | 0.00 | 0.00 | 0.00 | 53 | 1014.7 |
| 20260905171908 | 92 | 124 | 2.0 | 10.0 | 0.00 | 0.00 | 0.00 | 56 | 1014.8 |
| 20260905171142 | 91 | 106 | 3.0 | 8.0 | 0.00 | 0.00 | 0.00 | 57 | 1014.9 |
| 20260905171138 | 91 | 221 | 2.0 | 6.0 | 0.00 | 0.00 | 0.00 | 56 | 1014.8 |
| 20260905170139 | 90 | 183 | 2.0 | 8.0 | 0.00 | 0.00 | 0.00 | 57 | 1015.0 |
| 20260905165902 | 90 | 198 | 2.0 | 9.0 | 0.00 | 0.00 | 0.00 | 59 | 1015.0 |
| 20260905165126 | 89 | 239 | 3.0 | 9.0 | 0.00 | 0.00 | 0.00 | 59 | 1015.1 |
| 20260905164623 | 89 | 155 | 2.0 | 8.0 | 0.00 | 0.00 | 0.00 | 60 | 1015.1 |
| 20260905164617 | 89 | 134 | 3.0 | 7.0 | 0.00 | 0.00 | 0.00 | 61 | 1015.0 |
| 20260905163608 | 88 | 148 | 2.0 | 7.0 | 0.00 | 0.00 | 0.00 | 61 | 1015.2 |
| 20260905163101 | 88 | 241 | 1.0 | 5.0 | 0.00 | 0.00 | 0.00 | 63 | 1015.2 |
| 20260905162556 | 88 | 165 | 1.0 | 5.0 | 0.00 | 0.00 | 0.00 | 62 | 1015.2 |
| 20260905162054 | 89 | 161 | 1.0 | 5.0 | 0.00 | 0.00 | 0.00 | 64 | 1015.2 |
| 20260905161553 | 89 | 141 | 2.0 | 7.0 | 0.00 | 0.00 | 0.00 | 64 | 1015.2 |
| 20260905161053 | 89 | 213 | 1.0 | 7.0 | 0.00 | 0.00 | 0.00 | 65 | 1015.2 |
| 20260905160550 | 88 | 188 | 1.0 | 7.0 | 0.00 | 0.00 | 0.00 | 66 | 1015.2 |
| 20260905160050 | 88 | 178 | 2.0 | 7.0 | 0.00 | 0.00 | 0.00 | 65 | 1015.2 |
| 20260905155551 | 88 | 185 | 3.0 | 6.0 | 0.00 | 0.00 | 0.00 | 66 | 1015.1 |
| 20260905155049 | 88 | 183 | 4.0 | 9.0 | 0.00 | 0.00 | 0.00 | 68 | 1015.1 |
| 20260905154550 | 87 | 170 | 4.0 | 9.0 | 0.00 | 0.00 | 0.00 | 68 | 1014.9 |
| 20260905154049 | 87 | 130 | 3.0 | 9.0 | 0.00 | 0.00 | 0.00 | 70 | 1015.0 |
| 20260905153549 | 86 | 125 | 2.0 | 6.0 | 0.00 | 0.00 | 0.00 | 73 | 1015.1 |
| 20260905153321 | 86 | 164 | 1.0 | 6.0 | 0.00 | 0.00 | 0.00 | 74 | 1015.1 |
| 20260905152548 | 85 | 227 | 0.0 | 3.0 | 0.00 | 0.00 | 0.00 | 76 | 1015.2 |
| 20260905152048 | 85 | 220 | 0.0 | 0.0 | 0.00 | 0.00 | 0.00 | 78 | 1015.2 |
| 20260905151548 | 84 | 221 | 1.0 | 4.0 | 0.00 | 0.00 | 0.00 | 79 | 1015.2 |
| 20260905151046 | 84 | 221 | 1.0 | 4.0 | 0.00 | 0.00 | 0.00 | 80 | 1015.3 |
| 20260905150547 | 83 | 216 | 1.0 | 6.0 | 0.00 | 0.00 | 0.00 | 81 | 1015.2 |
| 20260905150047 | 83 | 214 | 1.0 | 6.0 | 0.00 | 0.00 | 0.00 | 81 | 1015.1 |
| 20260905145544 | 82 | 124 | 1.0 | 5.0 | 0.00 | 0.00 | 0.00 | 83 | 1015.1 |
| 20260905145038 | 82 | 179 | 0.0 | 6.0 | 0.00 | 0.00 | 0.00 | 84 | 1014.9 |
| 20260905144802 | 82 | 188 | 1.0 | 6.0 | 0.00 | 0.00 | 0.00 | 84 | 1014.9 |
| 20260905144026 | 81 | 188 | 1.0 | 4.0 | 0.00 | 0.00 | 0.00 | 85 | 1014.9 |
| 20260905143520 | 81 | 186 | 1.0 | 6.0 | 0.00 | 0.00 | 0.00 | 85 | 1014.9 |
| 20260905143014 | 81 | 186 | 1.0 | 6.0 | 0.00 | 0.00 | 0.00 | 86 | 1015.1 |
| 20260905142508 | 81 | 140 | 1.0 | 6.0 | 0.00 | 0.00 | 0.00 | 86 | 1015.1 |
| 20260905142232 | 80 | 133 | 2.0 | 6.0 | 0.00 | 0.00 | 0.00 | 87 | 1015.1 |
| 20260905141456 | 80 | 121 | 2.0 | 6.0 | 0.00 | 0.00 | 0.00 | 87 | 1015.1 |
| 20260905140952 | 80 | 117 | 2.0 | 6.0 | 0.00 | 0.00 | 0.00 | 87 | 1015.0 |
| 20260905140947 | 80 | 159 | 2.0 | 6.0 | 0.00 | 0.00 | 0.00 | 87 | 1014.9 |
| 20260905140210 | 79 | 164 | 1.0 | 5.0 | 0.00 | 0.00 | 0.00 | 88 | 1014.9 |
| 20260905135702 | 79 | 163 | 2.0 | 4.0 | 0.00 | 0.00 | 0.00 | 88 | 1014.9 |
| 20260905134926 | 79 | 165 | 1.0 | 4.0 | 0.00 | 0.00 | 0.00 | 87 | 1014.9 |
| 20260905134652 | 79 | 165 | 0.0 | 4.0 | 0.00 | 0.00 | 0.00 | 88 | 1014.9 |
| 20260905134144 | 78 | 165 | 0.0 | 0.0 | 0.00 | 0.00 | 0.00 | 87 | 1014.9 |
| 20260905133408 | 78 | 165 | 0.0 | 0.0 | 0.00 | 0.00 | 0.00 | 87 | 1014.8 |
| 20260905132902 | 78 | 165 | 0.0 | 0.0 | 0.00 | 0.00 | 0.00 | 87 | 1014.8 |
| 20260905132355 | 77 | 165 | 0.0 | 2.0 | 0.00 | 0.00 | 0.00 | 87 | 1014.8 |
| 20260905131850 | 77 | 165 | 0.0 | 2.0 | 0.00 | 0.00 | 0.00 | 87 | 1014.7 |
| 20260905131343 | 77 | 165 | 0.0 | 1.0 | 0.00 | 0.00 | 0.00 | 87 | 1014.6 |
| 20260905130838 | 76 | 165 | 0.0 | 0.0 | 0.00 | 0.00 | 0.00 | 86 | 1014.6 |
| 20260905130833 | 76 | 165 | 0.0 | 0.0 | 0.00 | 0.00 | 0.00 | 86 | 1014.5 |
| 20260905125825 | 76 | 165 | 0.0 | 0.0 | 0.00 | 0.00 | 0.00 | 86 | 1014.3 |
| 20260905125552 | 76 | 165 | 0.0 | 0.0 | 0.00 | 0.00 | 0.00 | 86 | 1014.3 |
| 20260905124814 | 76 | 165 | 0.0 | 0.0 | 0.00 | 0.00 | 0.00 | 86 | 1014.2 |
| 20260905124308 | 76 | 165 | 0.0 | 1.0 | 0.00 | 0.00 | 0.00 | 86 | 1014.2 |
| 20260905123802 | 76 | 165 | 0.0 | 1.0 | 0.00 | 0.00 | 0.00 | 85 | 1014.0 |
| 20260905123256 | 76 | 165 | 0.0 | 0.0 | 0.00 | 0.00 | 0.00 | 86 | 1014.0 |
| 20260905122750 | 76 | 165 | 0.0 | 0.0 | 0.00 | 0.00 | 0.00 | 85 | 1014.2 |
| 20260905122243 | 76 | 165 | 0.0 | 0.0 | 0.00 | 0.00 | 0.00 | 85 | 1014.1 |
| 20260905121739 | 76 | 165 | 0.0 | 0.0 | 0.00 | 0.00 | 0.00 | 85 | 1014.2 |
| 20260905121232 | 76 | 165 | 0.0 | 0.0 | 0.00 | 0.00 | 0.00 | 85 | 1014.2 |
| 20260905120732 | 76 | 165 | 0.0 | 0.0 | 0.00 | 0.00 | 0.00 | 85 | 1014.1 |
| 20260905120229 | 76 | 165 | 0.0 | 0.0 | 0.00 | 0.00 | 0.00 | 85 | 1013.9 |
| 20260905115728 | 77 | 165 | 0.0 | 1.0 | 0.00 | 0.00 | 0.00 | 85 | 1013.9 |
| 20260905115224 | 77 | 165 | 0.0 | 1.0 | 0.00 | 0.00 | 0.00 | 85 | 1013.9 |
| 20260905114723 | 77 | 165 | 0.0 | 0.0 | 0.00 | 0.00 | 0.00 | 85 | 1013.9 |
| 20260905114223 | 77 | 165 | 0.0 | 0.0 | 0.00 | 0.00 | 0.00 | 85 | 1013.9 |
| 20260905113724 | 77 | 165 | 0.0 | 0.0 | 0.00 | 0.00 | 0.00 | 85 | 1013.8 |
| 20260905113221 | 77 | 165 | 0.0 | 0.0 | 0.00 | 0.00 | 0.00 | 85 | 1013.9 |
| 20260905112719 | 77 | 165 | 0.0 | 0.0 | 0.00 | 0.00 | 0.00 | 85 | 1013.8 |
| 20260905112219 | 77 | 165 | 0.0 | 0.0 | 0.00 | 0.00 | 0.00 | 85 | 1013.9 |
| 20260905111719 | 77 | 165 | 0.0 | 0.0 | 0.00 | 0.00 | 0.00 | 85 | 1013.7 |
| 20260905111218 | 77 | 165 | 0.0 | 1.0 | 0.00 | 0.00 | 0.00 | 85 | 1013.8 |
| 20260905110716 | 78 | 165 | 0.0 | 1.0 | 0.00 | 0.00 | 0.00 | 85 | 1013.7 |
| 20260905110444 | 78 | 165 | 0.0 | 0.0 | 0.00 | 0.00 | 0.00 | 85 | 1013.7 |
| 20260905105716 | 78 | 165 | 0.0 | 0.0 | 0.00 | 0.00 | 0.00 | 84 | 1013.6 |
| 20260905105712 | 78 | 165 | 0.0 | 0.0 | 0.00 | 0.00 | 0.00 | 85 | 1013.8 |
| 20260905104706 | 78 | 165 | 0.0 | 0.0 | 0.00 | 0.00 | 0.00 | 84 | 1013.5 |
| 20260905104204 | 78 | 165 | 0.0 | 0.0 | 0.00 | 0.00 | 0.00 | 84 | 1013.5 |
| 20260905103705 | 78 | 165 | 0.0 | 0.0 | 0.00 | 0.00 | 0.00 | 84 | 1013.7 |
| 20260905103206 | 78 | 165 | 0.0 | 0.0 | 0.00 | 0.00 | 0.00 | 84 | 1013.6 |
| 20260905102704 | 78 | 165 | 0.0 | 0.0 | 0.00 | 0.00 | 0.00 | 84 | 1013.6 |
| 20260905102203 | 78 | 165 | 0.0 | 0.0 | 0.00 | 0.00 | 0.00 | 84 | 1013.8 |
| 20260905101700 | 78 | 165 | 0.0 | 0.0 | 0.00 | 0.00 | 0.00 | 84 | 1013.6 |
| 20260905101200 | 78 | 165 | 0.0 | 0.0 | 0.00 | 0.00 | 0.00 | 84 | 1013.5 |
| 20260905100701 | 78 | 165 | 0.0 | 0.0 | 0.00 | 0.00 | 0.00 | 84 | 1013.6 |
| 20260905100202 | 78 | 165 | 0.0 | 0.0 | 0.00 | 0.00 | 0.00 | 84 | 1013.6 |
| 20260905095702 | 78 | 165 | 0.0 | 1.0 | 0.00 | 0.00 | 0.00 | 84 | 1013.6 |
| 20260905095201 | 78 | 165 | 0.0 | 2.0 | 0.00 | 0.00 | 0.00 | 84 | 1013.5 |
| 20260905094701 | 78 | 165 | 0.0 | 2.0 | 0.00 | 0.00 | 0.00 | 84 | 1013.4 |
| 20260905094202 | 78 | 165 | 0.0 | 1.0 | 0.00 | 0.00 | 0.00 | 83 | 1013.4 |
| 20260905093931 | 78 | 165 | 0.0 | 1.0 | 0.00 | 0.00 | 0.00 | 83 | 1013.4 |
| 20260905093434 | 78 | 165 | 0.0 | 1.0 | 0.00 | 0.00 | 0.00 | 83 | 1013.4 |
| 20260905092702 | 79 | 165 | 0.0 | 1.0 | 0.00 | 0.00 | 0.00 | 83 | 1013.4 |
| 20260905092200 | 79 | 165 | 0.0 | 0.0 | 0.00 | 0.00 | 0.00 | 83 | 1013.3 |
| 20260905091701 | 79 | 165 | 0.0 | 1.0 | 0.00 | 0.00 | 0.00 | 83 | 1013.3 |
| 20260905091201 | 79 | 165 | 0.0 | 1.0 | 0.00 | 0.00 | 0.00 | 83 | 1013.5 |
| 20260905090700 | 79 | 165 | 0.0 | 1.0 | 0.00 | 0.00 | 0.00 | 83 | 1013.5 |
| 20260905090200 | 79 | 165 | 0.0 | 1.0 | 0.00 | 0.00 | 0.00 | 83 | 1013.5 |
| 20260905085931 | 79 | 165 | 0.0 | 2.0 | 0.00 | 0.00 | 0.00 | 83 | 1013.5 |
| 20260905085202 | 79 | 165 | 0.0 | 2.0 | 0.00 | 0.00 | 0.00 | 83 | 1013.5 |
| 20260905084702 | 79 | 165 | 1.0 | 4.0 | 0.00 | 0.00 | 0.00 | 83 | 1013.7 |
| 20260905084200 | 79 | 165 | 1.0 | 4.0 | 0.00 | 0.00 | 0.00 | 82 | 1013.7 |
| 20260905083657 | 79 | 165 | 1.0 | 2.0 | 0.00 | 0.00 | 0.00 | 82 | 1013.7 |
| 20260905083158 | 79 | 165 | 1.0 | 4.0 | 0.00 | 0.00 | 0.00 | 82 | 1013.8 |
| 20260905082654 | 79 | 165 | 1.0 | 4.0 | 0.00 | 0.00 | 0.00 | 82 | 1013.8 |
| 20260905082152 | 79 | 165 | 1.0 | 4.0 | 0.00 | 0.00 | 0.00 | 82 | 1013.8 |
| 20260905081651 | 79 | 165 | 1.0 | 6.0 | 0.00 | 0.00 | 0.00 | 82 | 1013.8 |
| 20260905081420 | 80 | 165 | 2.0 | 6.0 | 0.00 | 0.00 | 0.00 | 82 | 1013.8 |
| 20260905081037 | 80 | 162 | 1.0 | 6.0 | 0.00 | 0.00 | 0.00 | 81 | 1014.0 |
| 20260905080923 | 80 | 162 | 1.0 | 6.0 | 0.00 | 0.00 | 0.00 | 81 | 1013.9 |
| 20260905075645 | 80 | 135 | 1.0 | 4.0 | 0.00 | 0.00 | 0.00 | 81 | 1013.9 |
| 20260905075142 | 80 | 135 | 1.0 | 4.0 | 0.00 | 0.00 | 0.00 | 81 | 1014.0 |
| 20260905074642 | 80 | 134 | 1.0 | 3.0 | 0.00 | 0.00 | 0.00 | 81 | 1014.0 |
| 20260905074142 | 80 | 134 | 1.0 | 4.0 | 0.00 | 0.00 | 0.00 | 81 | 1014.0 |
| 20260905073643 | 80 | 134 | 1.0 | 4.0 | 0.00 | 0.00 | 0.00 | 81 | 1014.0 |
| 20260905073137 | 80 | 134 | 2.0 | 4.0 | 0.00 | 0.00 | 0.00 | 80 | 1014.2 |
| 20260905072631 | 80 | 134 | 2.0 | 4.0 | 0.00 | 0.00 | 0.00 | 80 | 1014.1 |
| 20260905072124 | 80 | 133 | 2.0 | 4.0 | 0.00 | 0.00 | 0.00 | 80 | 1014.2 |
| 20260905071619 | 80 | 133 | 2.0 | 4.0 | 0.00 | 0.00 | 0.00 | 80 | 1014.3 |
| 20260905071112 | 80 | 132 | 2.0 | 4.0 | 0.00 | 0.00 | 0.00 | 80 | 1014.3 |
| 20260905070607 | 80 | 179 | 2.0 | 4.0 | 0.00 | 0.00 | 0.00 | 80 | 1014.4 |
| 20260905070101 | 80 | 180 | 2.0 | 5.0 | 0.00 | 0.00 | 0.00 | 79 | 1014.3 |
| 20260905065554 | 80 | 175 | 2.0 | 5.0 | 0.00 | 0.00 | 0.00 | 79 | 1014.2 |
| 20260905065048 | 81 | 162 | 2.0 | 5.0 | 0.00 | 0.00 | 0.00 | 79 | 1014.3 |
| 20260905064815 | 81 | 155 | 2.0 | 6.0 | 0.00 | 0.00 | 0.00 | 79 | 1014.3 |
| 20260905064036 | 81 | 152 | 2.0 | 6.0 | 0.00 | 0.00 | 0.00 | 79 | 1014.2 |
| 20260905063530 | 81 | 146 | 3.0 | 8.0 | 0.00 | 0.00 | 0.00 | 79 | 1014.3 |
| 20260905063025 | 81 | 148 | 3.0 | 8.0 | 0.00 | 0.00 | 0.00 | 79 | 1014.3 |
| 20260905062519 | 81 | 139 | 3.0 | 7.0 | 0.00 | 0.00 | 0.00 | 78 | 1014.2 |
| 20260905062013 | 81 | 144 | 3.0 | 7.0 | 0.00 | 0.00 | 0.00 | 78 | 1014.2 |
| 20260905061507 | 81 | 155 | 3.0 | 7.0 | 0.00 | 0.00 | 0.00 | 78 | 1014.3 |
| 20260905061231 | 81 | 157 | 3.0 | 7.0 | 0.00 | 0.00 | 0.00 | 78 | 1014.3 |
| 20260905060455 | 81 | 154 | 3.0 | 9.0 | 0.00 | 0.00 | 0.00 | 78 | 1014.2 |
| 20260905055949 | 81 | 168 | 4.0 | 9.0 | 0.00 | 0.00 | 0.00 | 77 | 1014.1 |
| 20260905055444 | 81 | 152 | 3.0 | 8.0 | 0.00 | 0.00 | 0.00 | 77 | 1014.2 |
| 20260905054944 | 81 | 130 | 3.0 | 8.0 | 0.00 | 0.00 | 0.00 | 77 | 1014.2 |
| 20260905054444 | 81 | 138 | 3.0 | 8.0 | 0.00 | 0.00 | 0.00 | 76 | 1014.2 |
| 20260905054215 | 81 | 134 | 3.0 | 7.0 | 0.00 | 0.00 | 0.00 | 76 | 1014.2 |
| 20260905053444 | 81 | 143 | 3.0 | 7.0 | 0.00 | 0.00 | 0.00 | 76 | 1014.1 |
| 20260905053214 | 82 | 144 | 3.0 | 5.0 | 0.00 | 0.00 | 0.00 | 75 | 1014.2 |
| 20260905052445 | 82 | 148 | 3.0 | 7.0 | 0.00 | 0.00 | 0.00 | 75 | 1014.3 |
| 20260905051944 | 82 | 150 | 3.0 | 7.0 | 0.00 | 0.00 | 0.00 | 75 | 1014.3 |
| 20260905051715 | 82 | 161 | 3.0 | 6.0 | 0.00 | 0.00 | 0.00 | 75 | 1014.3 |
| 20260905051217 | 82 | 149 | 3.0 | 6.0 | 0.00 | 0.00 | 0.00 | 74 | 1014.5 |
| 20260905050445 | 82 | 140 | 3.0 | 7.0 | 0.00 | 0.00 | 0.00 | 74 | 1014.4 |
| 20260905045944 | 82 | 144 | 3.0 | 7.0 | 0.00 | 0.00 | 0.00 | 74 | 1014.4 |
| 20260905045442 | 82 | 162 | 3.0 | 7.0 | 0.00 | 0.00 | 0.00 | 74 | 1014.4 |
| 20260905044942 | 82 | 147 | 4.0 | 7.0 | 0.00 | 0.00 | 0.00 | 73 | 1014.3 |
| 20260905044443 | 82 | 132 | 4.0 | 8.0 | 0.00 | 0.00 | 0.00 | 73 | 1014.3 |
| 20260905043937 | 82 | 140 | 4.0 | 8.0 | 0.00 | 0.00 | 0.00 | 73 | 1014.3 |
| 20260905043434 | 82 | 167 | 3.0 | 8.0 | 0.00 | 0.00 | 0.00 | 73 | 1014.4 |
| 20260905042934 | 82 | 147 | 4.0 | 7.0 | 0.00 | 0.00 | 0.00 | 73 | 1014.3 |
| 20260905042432 | 83 | 139 | 4.0 | 9.0 | 0.00 | 0.00 | 0.00 | 72 | 1014.4 |
| 20260905041933 | 83 | 161 | 4.0 | 9.0 | 0.00 | 0.00 | 0.00 | 72 | 1014.3 |
| 20260905041432 | 83 | 140 | 4.0 | 7.0 | 0.00 | 0.00 | 0.00 | 72 | 1014.3 |
| 20260905041203 | 83 | 117 | 4.0 | 8.0 | 0.00 | 0.00 | 0.00 | 72 | 1014.3 |
| 20260905040704 | 83 | 164 | 4.0 | 8.0 | 0.00 | 0.00 | 0.00 | 71 | 1014.3 |
| 20260905035933 | 83 | 138 | 4.0 | 8.0 | 0.00 | 0.00 | 0.00 | 71 | 1014.2 |
| 20260905035433 | 83 | 161 | 4.0 | 8.0 | 0.00 | 0.00 | 0.00 | 71 | 1014.2 |
| 20260905034932 | 83 | 150 | 4.0 | 10.0 | 0.00 | 0.00 | 0.00 | 71 | 1014.2 |
| 20260905034429 | 83 | 154 | 4.0 | 10.0 | 0.00 | 0.00 | 0.00 | 71 | 1014.2 |
| 20260905033929 | 83 | 168 | 4.0 | 8.0 | 0.00 | 0.00 | 0.00 | 70 | 1014.2 |
| 20260905033429 | 83 | 148 | 4.0 | 8.0 | 0.00 | 0.00 | 0.00 | 70 | 1014.2 |
| 20260905032927 | 84 | 146 | 4.0 | 8.0 | 0.00 | 0.00 | 0.00 | 70 | 1014.0 |
| 20260905032427 | 84 | 131 | 3.0 | 8.0 | 0.00 | 0.00 | 0.00 | 69 | 1014.0 |
| 20260905031927 | 84 | 143 | 3.0 | 7.0 | 0.00 | 0.00 | 0.00 | 69 | 1014.0 |
| 20260905031426 | 84 | 151 | 3.0 | 7.0 | 0.00 | 0.00 | 0.00 | 69 | 1014.0 |
| 20260905030927 | 84 | 155 | 3.0 | 9.0 | 0.00 | 0.00 | 0.00 | 68 | 1014.0 |
| 20260905030652 | 84 | 151 | 3.0 | 9.0 | 0.00 | 0.00 | 0.00 | 68 | 1013.8 |
| 20260905030146 | 84 | 150 | 4.0 | 9.0 | 0.00 | 0.00 | 0.00 | 68 | 1013.8 |
| 20260905025409 | 84 | 159 | 5.0 | 9.0 | 0.00 | 0.00 | 0.00 | 67 | 1013.7 |
| 20260905024903 | 84 | 123 | 4.0 | 8.0 | 0.00 | 0.00 | 0.00 | 66 | 1013.7 |
| 20260905024356 | 84 | 153 | 3.0 | 7.0 | 0.00 | 0.00 | 0.00 | 66 | 1013.6 |
| 20260905023851 | 84 | 138 | 2.0 | 4.0 | 0.00 | 0.00 | 0.00 | 65 | 1013.7 |
| 20260905023345 | 84 | 137 | 1.0 | 3.0 | 0.00 | 0.00 | 0.00 | 65 | 1013.7 |
| 20260905022838 | 85 | 137 | 1.0 | 3.0 | 0.00 | 0.00 | 0.00 | 65 | 1013.7 |
| 20260905022605 | 85 | 136 | 0.0 | 3.0 | 0.00 | 0.00 | 0.00 | 65 | 1013.5 |
| 20260905021827 | 85 | 142 | 0.0 | 3.0 | 0.00 | 0.00 | 0.00 | 64 | 1013.4 |
| 20260905021321 | 85 | 142 | 1.0 | 4.0 | 0.00 | 0.00 | 0.00 | 64 | 1013.3 |
| 20260905020816 | 85 | 142 | 2.0 | 7.0 | 0.00 | 0.00 | 0.00 | 64 | 1013.2 |
| 20260905020308 | 85 | 140 | 2.0 | 7.0 | 0.00 | 0.00 | 0.00 | 64 | 1013.2 |
| 20260905020034 | 85 | 146 | 3.0 | 7.0 | 0.00 | 0.00 | 0.00 | 64 | 1013.2 |
| 20260905015529 | 85 | 148 | 3.0 | 7.0 | 0.00 | 0.00 | 0.00 | 64 | 1013.3 |
| 20260905014751 | 85 | 155 | 3.0 | 7.0 | 0.00 | 0.00 | 0.00 | 64 | 1013.2 |
| 20260905014246 | 85 | 140 | 3.0 | 7.0 | 0.00 | 0.00 | 0.00 | 64 | 1013.2 |
| 20260905013739 | 85 | 156 | 3.0 | 7.0 | 0.00 | 0.00 | 0.00 | 64 | 1013.1 |
| 20260905013233 | 86 | 138 | 3.0 | 7.0 | 0.00 | 0.00 | 0.00 | 64 | 1013.0 |
| 20260905012727 | 86 | 143 | 3.0 | 8.0 | 0.00 | 0.00 | 0.00 | 64 | 1012.9 |
| 20260905012220 | 86 | 148 | 4.0 | 8.0 | 0.00 | 0.00 | 0.00 | 64 | 1013.0 |
| 20260905011715 | 86 | 151 | 3.0 | 7.0 | 0.00 | 0.00 | 0.00 | 63 | 1012.9 |
| 20260905011209 | 87 | 144 | 4.0 | 8.0 | 0.00 | 0.00 | 0.00 | 63 | 1013.0 |
| 20260905010702 | 87 | 137 | 4.0 | 9.0 | 0.00 | 0.00 | 0.00 | 63 | 1013.0 |
| 20260905010157 | 87 | 145 | 4.0 | 9.0 | 0.00 | 0.00 | 0.00 | 62 | 1012.9 |
| 20260905005650 | 87 | 148 | 4.0 | 8.0 | 0.00 | 0.00 | 0.00 | 62 | 1012.8 |
| 20260905005415 | 88 | 119 | 4.0 | 10.0 | 0.00 | 0.00 | 0.00 | 62 | 1012.8 |
| 20260905004639 | 88 | 157 | 4.0 | 10.0 | 0.00 | 0.00 | 0.00 | 61 | 1012.6 |
| 20260905004133 | 88 | 150 | 6.0 | 12.0 | 0.00 | 0.00 | 0.00 | 60 | 1012.5 |
| 20260905003627 | 89 | 126 | 6.0 | 12.0 | 0.00 | 0.00 | 0.00 | 59 | 1012.4 |
| 20260905003121 | 89 | 138 | 4.0 | 12.0 | 0.00 | 0.00 | 0.00 | 58 | 1012.3 |
| 20260905002615 | 89 | 146 | 4.0 | 10.0 | 0.00 | 0.00 | 0.00 | 58 | 1012.4 |
| 20260905002108 | 89 | 151 | 5.0 | 11.0 | 0.00 | 0.00 | 0.00 | 57 | 1012.5 |
| 20260905001603 | 89 | 190 | 5.0 | 12.0 | 0.00 | 0.00 | 0.00 | 57 | 1012.3 |
| 20260905001056 | 89 | 139 | 5.0 | 12.0 | 0.00 | 0.00 | 0.00 | 56 | 1012.1 |
| 20260905000551 | 90 | 136 | 5.0 | 10.0 | 0.00 | 0.00 | 0.00 | 56 | 1012.1 |
| 20260905000318 | 90 | 162 | 5.0 | 11.0 | 0.00 | 0.00 | 0.00 | 56 | 1012.0 |
| 20260904235539 | 90 | 203 | 6.0 | 11.0 | 0.00 | 0.00 | 0.00 | 56 | 1011.9 |
| 20260904235033 | 90 | 155 | 5.0 | 11.0 | 0.00 | 0.00 | 0.00 | 56 | 1011.8 |
| 20260904234759 | 91 | 148 | 5.0 | 11.0 | 0.00 | 0.00 | 0.00 | 55 | 1011.8 |
| 20260904234021 | 91 | 119 | 5.0 | 11.0 | 0.00 | 0.00 | 0.00 | 54 | 1011.8 |
| 20260904233514 | 91 | 133 | 4.0 | 11.0 | 0.00 | 0.00 | 0.00 | 48 | 1011.8 |
| 20260904233009 | 91 | 152 | 5.0 | 11.0 | 0.00 | 0.00 | 0.00 | 47 | 1011.8 |
| 20260904232502 | 91 | 150 | 6.0 | 11.0 | 0.00 | 0.00 | 0.00 | 47 | 1011.8 |
| 20260904232000 | 91 | 131 | 4.0 | 11.0 | 0.00 | 0.00 | 0.00 | 47 | 1011.8 |
| 20260904231731 | 91 | 143 | 3.0 | 10.0 | 0.00 | 0.00 | 0.00 | 47 | 1012.0 |
| 20260904230959 | 91 | 138 | 3.0 | 10.0 | 0.00 | 0.00 | 0.00 | 46 | 1012.0 |
| 20260904230501 | 91 | 138 | 4.0 | 13.0 | 0.00 | 0.00 | 0.00 | 47 | 1012.0 |
| 20260904225959 | 92 | 153 | 5.0 | 13.0 | 0.00 | 0.00 | 0.00 | 46 | 1012.1 |
| 20260904225732 | 92 | 146 | 5.0 | 11.0 | 0.00 | 0.00 | 0.00 | 47 | 1012.2 |
| 20260904225231 | 92 | 136 | 6.0 | 13.0 | 0.00 | 0.00 | 0.00 | 46 | 1012.1 |
| 20260904224501 | 92 | 244 | 5.0 | 13.0 | 0.00 | 0.00 | 0.00 | 46 | 1012.2 |
| 20260904224002 | 92 | 125 | 4.0 | 12.0 | 0.00 | 0.00 | 0.00 | 46 | 1012.2 |
| 20260904223458 | 92 | 159 | 4.0 | 12.0 | 0.00 | 0.00 | 0.00 | 47 | 1012.3 |
| 20260904223229 | 93 | 143 | 4.0 | 12.0 | 0.00 | 0.00 | 0.00 | 49 | 1012.4 |
| 20260904222728 | 92 | 232 | 3.0 | 11.0 | 0.00 | 0.00 | 0.00 | 49 | 1012.4 |
| 20260904221958 | 92 | 173 | 3.0 | 8.0 | 0.00 | 0.00 | 0.00 | 50 | 1012.3 |
| 20260904221459 | 92 | 175 | 4.0 | 10.0 | 0.00 | 0.00 | 0.00 | 51 | 1012.4 |
| 20260904220954 | 92 | 116 | 4.0 | 10.0 | 0.00 | 0.00 | 0.00 | 51 | 1012.4 |
| 20260904220455 | 92 | 182 | 5.0 | 11.0 | 0.00 | 0.00 | 0.00 | 50 | 1012.5 |
| 20260904215954 | 92 | 135 | 5.0 | 11.0 | 0.00 | 0.00 | 0.00 | 50 | 1012.5 |
| 20260904215453 | 92 | 165 | 6.0 | 12.0 | 0.00 | 0.00 | 0.00 | 50 | 1012.5 |
| 20260904214953 | 92 | 159 | 5.0 | 12.0 | 0.00 | 0.00 | 0.00 | 50 | 1012.5 |
| 20260904214500 | 92 | 132 | 4.0 | 10.0 | 0.00 | 0.00 | 0.00 | 53 | 1012.8 |
| 20260904214455 | 92 | 144 | 5.0 | 10.0 | 0.00 | 0.00 | 0.00 | 51 | 1012.5 |
| 20260904213453 | 92 | 155 | 5.0 | 10.0 | 0.00 | 0.00 | 0.00 | 54 | 1012.9 |
| 20260904212955 | 92 | 180 | 5.0 | 11.0 | 0.00 | 0.00 | 0.00 | 56 | 1013.0 |
| 20260904212455 | 92 | 129 | 4.0 | 11.0 | 0.00 | 0.00 | 0.00 | 55 | 1013.2 |
| 20260904211954 | 92 | 145 | 3.0 | 9.0 | 0.00 | 0.00 | 0.00 | 55 | 1013.1 |
| 20260904211454 | 92 | 136 | 3.0 | 8.0 | 0.00 | 0.00 | 0.00 | 54 | 1013.2 |
| 20260904210954 | 92 | 121 | 4.0 | 11.0 | 0.00 | 0.00 | 0.00 | 54 | 1013.3 |
| 20260904210724 | 91 | 178 | 4.0 | 11.0 | 0.00 | 0.00 | 0.00 | 53 | 1013.3 |
| 20260904205955 | 91 | 188 | 5.0 | 11.0 | 0.00 | 0.00 | 0.00 | 52 | 1013.3 |
| 20260904205454 | 90 | 143 | 5.0 | 11.0 | 0.00 | 0.00 | 0.00 | 53 | 1013.3 |
| 20260904204953 | 90 | 148 | 6.0 | 12.0 | 0.00 | 0.00 | 0.00 | 52 | 1013.3 |
| 20260904204453 | 90 | 154 | 5.0 | 12.0 | 0.00 | 0.00 | 0.00 | 54 | 1013.3 |
| 20260904204217 | 90 | 123 | 5.0 | 12.0 | 0.00 | 0.00 | 0.00 | 54 | 1013.5 |
| 20260904203439 | 90 | 129 | 5.0 | 12.0 | 0.00 | 0.00 | 0.00 | 54 | 1013.6 |
| 20260904202933 | 90 | 142 | 5.0 | 10.0 | 0.00 | 0.00 | 0.00 | 55 | 1013.4 |
| 20260904202427 | 90 | 110 | 5.0 | 10.0 | 0.00 | 0.00 | 0.00 | 54 | 1013.5 |
| 20260904201922 | 91 | 141 | 5.0 | 11.0 | 0.00 | 0.00 | 0.00 | 54 | 1013.7 |
| 20260904201417 | 91 | 142 | 4.0 | 11.0 | 0.00 | 0.00 | 0.00 | 55 | 1013.6 |
| 20260904200917 | 92 | 171 | 3.0 | 9.0 | 0.00 | 0.00 | 0.00 | 56 | 1013.7 |
| 20260904200417 | 92 | 139 | 3.0 | 9.0 | 0.00 | 0.00 | 0.00 | 58 | 1013.8 |
| 20260904195915 | 92 | 149 | 4.0 | 9.0 | 0.00 | 0.00 | 0.00 | 58 | 1013.8 |
| 20260904195416 | 93 | 129 | 3.0 | 9.0 | 0.00 | 0.00 | 0.00 | 58 | 1013.8 |
| 20260904194914 | 93 | 128 | 3.0 | 8.0 | 0.00 | 0.00 | 0.00 | 59 | 1013.8 |
| 20260904194644 | 93 | 120 | 3.0 | 8.0 | 0.00 | 0.00 | 0.00 | 57 | 1013.9 |
| 20260904193914 | 94 | 184 | 4.0 | 9.0 | 0.00 | 0.00 | 0.00 | 59 | 1013.9 |
| 20260904193414 | 93 | 146 | 5.0 | 9.0 | 0.00 | 0.00 | 0.00 | 58 | 1013.9 |
| 20260904192913 | 93 | 142 | 4.0 | 10.0 | 0.00 | 0.00 | 0.00 | 59 | 1014.0 |
| 20260904192412 | 92 | 100 | 4.0 | 11.0 | 0.00 | 0.00 | 0.00 | 62 | 1014.0 |
| 20260904191911 | 91 | 124 | 4.0 | 11.0 | 0.00 | 0.00 | 0.00 | 62 | 1014.0 |
| 20260904191412 | 91 | 169 | 4.0 | 10.0 | 0.00 | 0.00 | 0.00 | 62 | 1014.2 |
| 20260904190913 | 90 | 136 | 5.0 | 14.0 | 0.00 | 0.00 | 0.00 | 62 | 1014.5 |
| 20260904190410 | 90 | 132 | 5.0 | 14.0 | 0.00 | 0.00 | 0.00 | 63 | 1014.5 |
| 20260904185909 | 89 | 134 | 3.0 | 9.0 | 0.00 | 0.00 | 0.00 | 67 | 1014.4 |
| 20260904185409 | 89 | 164 | 3.0 | 8.0 | 0.00 | 0.00 | 0.00 | 68 | 1014.4 |
| 20260904184910 | 88 | 133 | 4.0 | 11.0 | 0.00 | 0.00 | 0.00 | 70 | 1014.5 |
| 20260904184404 | 87 | 133 | 4.0 | 11.0 | 0.00 | 0.00 | 0.00 | 69 | 1014.8 |
| 20260904184129 | 87 | 146 | 3.0 | 10.0 | 0.00 | 0.00 | 0.00 | 70 | 1015.0 |
| 20260904183351 | 87 | 149 | 2.0 | 7.0 | 0.00 | 0.00 | 0.00 | 70 | 1014.9 |
| 20260904183116 | 87 | 149 | 3.0 | 8.0 | 0.00 | 0.00 | 0.00 | 70 | 1015.0 |
| 20260904182340 | 87 | 96 | 3.0 | 8.0 | 0.00 | 0.00 | 0.00 | 71 | 1015.0 |
| 20260904181834 | 87 | 149 | 2.0 | 7.0 | 0.00 | 0.00 | 0.00 | 71 | 1014.8 |
| 20260904181328 | 87 | 109 | 2.0 | 8.0 | 0.00 | 0.00 | 0.00 | 70 | 1014.9 |
| 20260904180828 | 87 | 113 | 2.0 | 8.0 | 0.00 | 0.00 | 0.00 | 71 | 1014.9 |
| 20260904180328 | 87 | 165 | 2.0 | 8.0 | 0.00 | 0.00 | 0.00 | 70 | 1015.0 |
| 20260904175834 | 86 | 159 | 2.0 | 6.0 | 0.00 | 0.00 | 0.00 | 71 | 1015.1 |
| 20260904175828 | 86 | 139 | 3.0 | 8.0 | 0.00 | 0.00 | 0.00 | 70 | 1015.1 |